Time,TemperatureF,DewpointF,PressureIn,WindDirection,WindDirectionDegrees,WindSpeedMPH,WindSpeedGustMPH,Humidity,HourlyPrecipIn,Conditions,Clouds,dailyrainin,SolarRadiationWatts/m^2,SoftwareType,DateUTC
2013-06-05 00:02:00,68.0,65.0,-100.00,East,88,1.0,3.0,90,0.00,,,0.00,0.000000,,2013-06-05 05:02:00,
2013-06-05 00:23:00,68.0,65.0,-100.00,East,88,1.0,3.0,90,0.00,,,0.00,0.000000,,2013-06-05 05:23:00,
2013-06-05 00:32:00,68.0,65.0,-100.00,East,88,1.0,3.0,90,0.00,,,0.00,0.000000,,2013-06-05 05:32:00,
2013-06-05 00:42:00,68.0,65.0,-100.00,East,88,1.0,3.0,90,0.00,,,0.00,0.000000,,2013-06-05 05:42:00,
2013-06-05 00:52:00,68.0,65.0,-100.00,East,88,1.0,3.0,90,0.00,,,0.00,0.000000,,2013-06-05 05:52:00,
2013-06-05 01:02:00,68.0,65.0,-100.00,East,80,1.0,3.0,90,0.00,,,0.00,0.000000,,2013-06-05 06:02:00,
2013-06-05 01:22:00,68.0,65.0,-100.00,East,80,1.0,3.0,90,0.00,,,0.00,0.000000,,2013-06-05 06:22:00,
2013-06-05 01:32:00,68.0,65.0,-100.00,East,80,1.0,3.0,90,0.00,,,0.00,0.000000,,2013-06-05 06:32:00,
2013-06-05 01:42:00,68.0,65.0,-100.00,East,80,1.0,3.0,90,0.00,,,0.00,0.000000,,2013-06-05 06:42:00,
2013-06-05 01:52:00,68.0,65.0,-100.00,East,80,1.0,3.0,90,0.00,,,0.00,0.000000,,2013-06-05 06:52:00,
2013-06-05 02:02:00,67.0,64.0,-100.00,ENE,76,2.0,4.0,90,0.00,,,-99.99,0.000000,,2013-06-05 07:02:00,
2013-06-05 02:22:00,67.0,64.0,-100.00,ENE,76,2.0,4.0,90,0.00,,,-99.99,0.000000,,2013-06-05 07:22:00,
2013-06-05 02:32:00,67.0,64.0,-100.00,ENE,76,2.0,4.0,90,0.00,,,-99.99,0.000000,,2013-06-05 07:32:00,
2013-06-05 02:42:00,67.0,64.0,-100.00,ENE,76,2.0,4.0,90,0.00,,,-99.99,0.000000,,2013-06-05 07:42:00,
2013-06-05 02:52:00,67.0,64.0,-100.00,ENE,76,2.0,4.0,90,0.00,,,-99.99,0.000000,,2013-06-05 07:52:00,
2013-06-05 03:02:00,68.0,64.0,-100.00,ENE,78,3.0,5.0,87,0.00,,,0.00,0.000000,,2013-06-05 08:02:00,
2013-06-05 03:22:00,68.0,64.0,-100.00,ENE,78,3.0,5.0,87,0.00,,,0.00,0.000000,,2013-06-05 08:22:00,
2013-06-05 03:32:00,68.0,64.0,-100.00,ENE,78,3.0,5.0,87,0.00,,,0.00,0.000000,,2013-06-05 08:32:00,
2013-06-05 03:42:00,68.0,64.0,-100.00,ENE,78,3.0,5.0,87,0.00,,,0.00,0.000000,,2013-06-05 08:42:00,
2013-06-05 03:52:00,68.0,64.0,-100.00,ENE,78,3.0,5.0,87,0.00,,,0.00,0.000000,,2013-06-05 08:52:00,
2013-06-05 04:02:00,67.0,63.0,-100.00,East,90,3.0,5.0,88,0.00,,,0.00,0.000000,,2013-06-05 09:02:00,
2013-06-05 04:22:00,67.0,63.0,-100.00,East,90,3.0,5.0,88,0.00,,,0.00,0.000000,,2013-06-05 09:22:00,
2013-06-05 04:33:00,67.0,63.0,-100.00,East,90,3.0,5.0,88,0.00,,,0.00,0.000000,,2013-06-05 09:33:00,
2013-06-05 04:43:00,67.0,63.0,-100.00,East,90,3.0,5.0,88,0.00,,,0.00,0.000000,,2013-06-05 09:43:00,
2013-06-05 04:53:00,67.0,63.0,-100.00,East,90,3.0,5.0,88,0.00,,,0.00,0.000000,,2013-06-05 09:53:00,
2013-06-05 05:02:00,66.0,62.0,-100.00,NE,56,3.0,5.0,88,0.00,,,0.00,0.000000,,2013-06-05 10:02:00,
2013-06-05 05:23:00,66.0,62.0,-100.00,NE,56,3.0,5.0,88,0.00,,,0.00,0.000000,,2013-06-05 10:23:00,
2013-06-05 05:33:00,66.0,62.0,-100.00,NE,56,3.0,5.0,88,0.00,,,0.00,0.000000,,2013-06-05 10:33:00,
2013-06-05 05:43:00,66.0,62.0,-100.00,NE,56,3.0,5.0,88,0.00,,,0.00,0.000000,,2013-06-05 10:43:00,
2013-06-05 05:53:00,66.0,62.0,-100.00,NE,56,3.0,5.0,88,0.00,,,0.00,0.000000,,2013-06-05 10:53:00,
2013-06-05 06:02:00,66.0,63.0,-100.00,East,93,1.0,5.0,89,0.00,,,0.00,1.000000,,2013-06-05 11:02:00,
2013-06-05 06:22:00,66.0,63.0,-100.00,East,93,1.0,5.0,89,0.00,,,0.00,1.000000,,2013-06-05 11:22:00,
2013-06-05 06:33:00,66.0,63.0,-100.00,East,93,1.0,5.0,89,0.00,,,0.00,1.000000,,2013-06-05 11:33:00,
2013-06-05 06:42:00,66.0,63.0,-100.00,East,93,1.0,5.0,89,0.00,,,0.00,1.000000,,2013-06-05 11:42:00,
2013-06-05 06:52:00,66.0,63.0,-100.00,East,93,1.0,5.0,89,0.00,,,0.00,1.000000,,2013-06-05 11:52:00,
2013-06-05 07:02:00,66.0,63.0,-100.00,ESE,104,2.0,2.0,90,0.00,,,-99.99,27.000000,,2013-06-05 12:02:00,
2013-06-05 07:22:00,66.0,63.0,-100.00,ESE,104,2.0,2.0,90,0.00,,,-99.99,27.000000,,2013-06-05 12:22:00,
2013-06-05 07:32:00,66.0,63.0,-100.00,ESE,104,2.0,2.0,90,0.00,,,-99.99,27.000000,,2013-06-05 12:32:00,
2013-06-05 07:44:00,66.0,63.0,-100.00,ESE,104,2.0,2.0,90,0.00,,,-99.99,27.000000,,2013-06-05 12:44:00,
2013-06-05 07:52:00,66.0,63.0,-100.00,ESE,104,2.0,2.0,90,0.00,,,-99.99,27.000000,,2013-06-05 12:52:00,
2013-06-05 08:02:00,72.0,65.0,-100.00,NE,49,3.0,9.0,80,0.00,,,0.00,168.000000,,2013-06-05 13:02:00,
2013-06-05 08:22:00,72.0,65.0,-100.00,NE,49,3.0,9.0,80,0.00,,,0.00,168.000000,,2013-06-05 13:22:00,
2013-06-05 08:33:00,72.0,65.0,-100.00,NE,49,3.0,9.0,80,0.00,,,0.00,168.000000,,2013-06-05 13:33:00,
2013-06-05 08:42:00,72.0,65.0,-100.00,NE,49,3.0,9.0,80,0.00,,,0.00,168.000000,,2013-06-05 13:42:00,
2013-06-05 08:52:00,72.0,65.0,-100.00,NE,49,3.0,9.0,80,0.00,,,0.00,168.000000,,2013-06-05 13:52:00,
2013-06-05 09:02:00,76.0,66.0,-100.00,NNW,348,2.0,6.0,72,0.00,,,0.00,270.000000,,2013-06-05 14:02:00,
2013-06-05 09:22:00,76.0,66.0,-100.00,NNW,348,2.0,6.0,72,0.00,,,0.00,270.000000,,2013-06-05 14:22:00,
2013-06-05 09:32:00,76.0,66.0,-100.00,NNW,348,2.0,6.0,72,0.00,,,0.00,270.000000,,2013-06-05 14:32:00,
2013-06-05 09:42:00,76.0,66.0,-100.00,NNW,348,2.0,6.0,72,0.00,,,0.00,270.000000,,2013-06-05 14:42:00,
2013-06-05 09:52:00,76.0,66.0,-100.00,NNW,348,2.0,6.0,72,0.00,,,0.00,270.000000,,2013-06-05 14:52:00,
2013-06-05 10:02:00,76.0,67.0,-100.00,NW,318,7.0,15.0,73,0.00,,,0.00,211.000000,,2013-06-05 15:02:00,
2013-06-05 10:23:00,76.0,67.0,-100.00,NW,318,7.0,15.0,73,0.00,,,0.00,211.000000,,2013-06-05 15:23:00,
2013-06-05 10:33:00,76.0,67.0,-100.00,NW,318,7.0,15.0,73,0.00,,,0.00,211.000000,,2013-06-05 15:33:00,
2013-06-05 10:43:00,76.0,67.0,-100.00,NW,318,7.0,15.0,73,0.00,,,0.00,211.000000,,2013-06-05 15:43:00,
2013-06-05 10:53:00,76.0,67.0,-100.00,NW,318,7.0,15.0,73,0.00,,,0.00,211.000000,,2013-06-05 15:53:00,
2013-06-05 11:02:00,77.0,68.0,-100.00,ESE,119,5.0,11.0,75,0.00,,,0.00,405.000000,,2013-06-05 16:02:00,
2013-06-05 11:23:00,77.0,68.0,-100.00,ESE,119,5.0,11.0,75,0.00,,,0.00,405.000000,,2013-06-05 16:23:00,
2013-06-05 11:32:00,77.0,68.0,-100.00,ESE,119,5.0,11.0,75,0.00,,,0.00,405.000000,,2013-06-05 16:32:00,
2013-06-05 11:42:00,77.0,68.0,-100.00,ESE,119,5.0,11.0,75,0.00,,,0.00,405.000000,,2013-06-05 16:42:00,
2013-06-05 11:54:00,77.0,68.0,-100.00,ESE,119,5.0,11.0,75,0.00,,,0.00,405.000000,,2013-06-05 16:54:00,
2013-06-05 12:02:00,80.0,68.0,-100.00,NNW,333,6.0,11.0,66,0.00,,,0.00,476.000000,,2013-06-05 17:02:00,
2013-06-05 12:22:00,80.0,68.0,-100.00,NNW,333,6.0,11.0,66,0.00,,,0.00,476.000000,,2013-06-05 17:22:00,
2013-06-05 12:33:00,80.0,68.0,-100.00,NNW,333,6.0,11.0,66,0.00,,,0.00,476.000000,,2013-06-05 17:33:00,
2013-06-05 12:43:00,80.0,68.0,-100.00,NNW,333,6.0,11.0,66,0.00,,,0.00,476.000000,,2013-06-05 17:43:00,
2013-06-05 12:52:00,80.0,68.0,-100.00,NNW,333,6.0,11.0,66,0.00,,,0.00,476.000000,,2013-06-05 17:52:00,
2013-06-05 13:02:00,83.0,70.0,-100.00,ESE,104,3.0,11.0,64,0.00,,,0.00,702.000000,,2013-06-05 18:02:00,
2013-06-05 13:23:00,83.0,70.0,-100.00,ESE,104,3.0,11.0,64,0.00,,,0.00,702.000000,,2013-06-05 18:23:00,
2013-06-05 13:32:00,83.0,70.0,-100.00,ESE,104,3.0,11.0,64,0.00,,,0.00,702.000000,,2013-06-05 18:32:00,
2013-06-05 13:42:00,83.0,70.0,-100.00,ESE,104,3.0,11.0,64,0.00,,,0.00,702.000000,,2013-06-05 18:42:00,
2013-06-05 13:52:00,83.0,70.0,-100.00,ESE,104,3.0,11.0,64,0.00,,,0.00,702.000000,,2013-06-05 18:52:00,
2013-06-05 14:02:00,85.0,69.0,-100.00,SE,134,4.0,10.0,59,0.00,,,0.00,1042.000000,,2013-06-05 19:02:00,
2013-06-05 14:23:00,85.0,69.0,-100.00,SE,134,4.0,10.0,59,0.00,,,0.00,1042.000000,,2013-06-05 19:23:00,
2013-06-05 14:32:00,85.0,69.0,-100.00,SE,134,4.0,10.0,59,0.00,,,0.00,1042.000000,,2013-06-05 19:32:00,
2013-06-05 14:42:00,85.0,69.0,-100.00,SE,134,4.0,10.0,59,0.00,,,0.00,1042.000000,,2013-06-05 19:42:00,
2013-06-05 14:53:00,85.0,69.0,-100.00,SE,134,4.0,10.0,59,0.00,,,0.00,1042.000000,,2013-06-05 19:53:00,
2013-06-05 15:02:00,88.0,71.0,-100.00,SSW,201,5.0,10.0,57,0.00,,,0.00,920.000000,,2013-06-05 20:02:00,
2013-06-05 15:23:00,88.0,71.0,-100.00,SSW,201,5.0,10.0,57,0.00,,,0.00,920.000000,,2013-06-05 20:23:00,
2013-06-05 15:32:00,88.0,71.0,-100.00,SSW,201,5.0,10.0,57,0.00,,,0.00,920.000000,,2013-06-05 20:32:00,
2013-06-05 15:42:00,88.0,71.0,-100.00,SSW,201,5.0,10.0,57,0.00,,,0.00,920.000000,,2013-06-05 20:42:00,
2013-06-05 15:52:00,88.0,71.0,-100.00,SSW,201,5.0,10.0,57,0.00,,,0.00,920.000000,,2013-06-05 20:52:00,
2013-06-05 16:02:00,88.0,70.0,-100.00,SW,230,5.0,10.0,55,0.00,,,0.00,866.000000,,2013-06-05 21:02:00,
2013-06-05 16:23:00,88.0,70.0,-100.00,SW,230,5.0,10.0,55,0.00,,,0.00,866.000000,,2013-06-05 21:23:00,
2013-06-05 16:33:00,88.0,70.0,-100.00,SW,230,5.0,10.0,55,0.00,,,0.00,866.000000,,2013-06-05 21:33:00,
2013-06-05 16:43:00,88.0,70.0,-100.00,SW,230,5.0,10.0,55,0.00,,,0.00,866.000000,,2013-06-05 21:43:00,
2013-06-05 16:53:00,88.0,70.0,-100.00,SW,230,5.0,10.0,55,0.00,,,0.00,866.000000,,2013-06-05 21:53:00,
2013-06-05 17:02:00,89.0,70.0,-100.00,WSW,242,3.0,9.0,54,0.00,,,0.00,741.000000,,2013-06-05 22:02:00,
2013-06-05 17:22:00,89.0,70.0,-100.00,WSW,242,3.0,9.0,54,0.00,,,0.00,741.000000,,2013-06-05 22:22:00,
2013-06-05 17:33:00,89.0,70.0,-100.00,WSW,242,3.0,9.0,54,0.00,,,0.00,741.000000,,2013-06-05 22:33:00,
2013-06-05 17:43:00,89.0,70.0,-100.00,WSW,242,3.0,9.0,54,0.00,,,0.00,741.000000,,2013-06-05 22:43:00,
2013-06-05 17:53:00,89.0,70.0,-100.00,WSW,242,3.0,9.0,54,0.00,,,0.00,741.000000,,2013-06-05 22:53:00,
2013-06-05 18:02:00,89.0,71.0,-100.00,West,264,3.0,7.0,56,0.00,,,0.00,550.000000,,2013-06-05 23:02:00,
2013-06-05 18:22:00,89.0,71.0,-100.00,West,264,3.0,7.0,56,0.00,,,0.00,550.000000,,2013-06-05 23:22:00,
2013-06-05 18:32:00,89.0,71.0,-100.00,West,264,3.0,7.0,56,0.00,,,0.00,550.000000,,2013-06-05 23:32:00,
2013-06-05 18:42:00,89.0,71.0,-100.00,West,264,3.0,7.0,56,0.00,,,0.00,550.000000,,2013-06-05 23:42:00,
2013-06-05 18:53:00,89.0,71.0,-100.00,West,264,3.0,7.0,56,0.00,,,0.00,550.000000,,2013-06-05 23:53:00,
2013-06-05 19:02:00,87.0,70.0,-100.00,NW,314,3.0,5.0,57,0.00,,,0.00,310.000000,,2013-06-06 00:02:00,
2013-06-05 19:22:00,87.0,70.0,-100.00,NW,314,3.0,5.0,57,0.00,,,0.00,310.000000,,2013-06-06 00:22:00,
2013-06-05 19:32:00,87.0,70.0,-100.00,NW,314,3.0,5.0,57,0.00,,,0.00,310.000000,,2013-06-06 00:32:00,
2013-06-05 19:43:00,87.0,70.0,-100.00,NW,314,3.0,5.0,57,0.00,,,0.00,310.000000,,2013-06-06 00:43:00,
2013-06-05 19:52:00,87.0,70.0,-100.00,NW,314,3.0,5.0,57,0.00,,,0.00,310.000000,,2013-06-06 00:52:00,
2013-06-05 20:02:00,82.0,73.0,-100.00,WSW,255,1.0,5.0,75,0.00,,,0.00,109.000000,,2013-06-06 01:02:00,
2013-06-05 20:22:00,82.0,73.0,-100.00,WSW,255,1.0,5.0,75,0.00,,,0.00,109.000000,,2013-06-06 01:22:00,
2013-06-05 20:32:00,82.0,73.0,-100.00,WSW,255,1.0,5.0,75,0.00,,,0.00,109.000000,,2013-06-06 01:32:00,
2013-06-05 20:42:00,82.0,73.0,-100.00,WSW,255,1.0,5.0,75,0.00,,,0.00,109.000000,,2013-06-06 01:42:00,
2013-06-05 20:53:00,82.0,73.0,-100.00,WSW,255,1.0,5.0,75,0.00,,,0.00,109.000000,,2013-06-06 01:53:00,
2013-06-05 21:02:00,77.0,72.0,-100.00,WSW,257,0.0,1.0,86,0.00,,,0.00,6.000000,,2013-06-06 02:02:00,
2013-06-05 21:22:00,77.0,72.0,-100.00,WSW,257,0.0,1.0,86,0.00,,,0.00,6.000000,,2013-06-06 02:22:00,
2013-06-05 21:32:00,77.0,72.0,-100.00,WSW,257,0.0,1.0,86,0.00,,,0.00,6.000000,,2013-06-06 02:32:00,
2013-06-05 21:42:00,77.0,72.0,-100.00,WSW,257,0.0,1.0,86,0.00,,,0.00,6.000000,,2013-06-06 02:42:00,
2013-06-05 21:52:00,77.0,72.0,-100.00,WSW,257,0.0,1.0,86,0.00,,,0.00,6.000000,,2013-06-06 02:52:00,
2013-06-05 22:02:00,76.0,71.0,-100.00,NNE,29,2.0,8.0,84,0.00,,,0.00,0.000000,,2013-06-06 03:02:00,
2013-06-05 22:22:00,76.0,71.0,-100.00,NNE,29,2.0,8.0,84,0.00,,,0.00,0.000000,,2013-06-06 03:22:00,
2013-06-05 22:33:00,76.0,71.0,-100.00,NNE,29,2.0,8.0,84,0.00,,,0.00,0.000000,,2013-06-06 03:33:00,
2013-06-05 22:43:00,76.0,71.0,-100.00,NNE,29,2.0,8.0,84,0.00,,,0.00,0.000000,,2013-06-06 03:43:00,
2013-06-05 22:53:00,76.0,71.0,-100.00,NNE,29,2.0,8.0,84,0.00,,,0.00,0.000000,,2013-06-06 03:53:00,
2013-06-05 23:02:00,75.0,69.0,-100.00,NE,38,1.0,6.0,82,0.00,,,0.00,0.000000,,2013-06-06 04:02:00,
2013-06-05 23:23:00,75.0,69.0,-100.00,NE,38,1.0,6.0,82,0.00,,,0.00,0.000000,,2013-06-06 04:23:00,
2013-06-05 23:33:00,75.0,69.0,-100.00,NE,38,1.0,6.0,82,0.00,,,0.00,0.000000,,2013-06-06 04:33:00,
2013-06-05 23:42:00,75.0,69.0,-100.00,NE,38,1.0,6.0,82,0.00,,,0.00,0.000000,,2013-06-06 04:42:00,
2013-06-05 23:53:00,75.0,69.0,-100.00,NE,38,1.0,6.0,82,0.00,,,0.00,0.000000,,2013-06-06 04:53:00,